N7613G KLAS-KLAX

Flight info

Callsign N7613G
Flight time 0h 36m
Altitude 28000
Route RADYR2 BLAQQ SHTNR ANJLL4
Aircraft C25B/M-SDE2E3FGHRWXY/LB1

Departure

Time 2026-05-07 15:56
Airport Harry Reid International Airport (KLAS)

Arrival

Time 2026-05-07 16:33
Airport Los Angeles International Airport (KLAX)
Time Latitude Longitude Altitude Speed Heading
2026-05-07 15:44 36.08179 -115.17161 2139 ft 0 kts 359°
2026-05-07 15:51 36.08185 -115.17155 2138 ft 8 kts 61°
2026-05-07 15:51 36.08151 -115.17052 2131 ft 17 kts 91°
2026-05-07 15:52 36.08185 -115.16908 2126 ft 19 kts 32°
2026-05-07 15:52 36.08340 -115.16816 2121 ft 31 kts 24°
2026-05-07 15:52 36.08540 -115.16703 2120 ft 31 kts 25°
2026-05-07 15:52 36.08732 -115.16592 2122 ft 29 kts 25°
2026-05-07 15:53 36.08914 -115.16487 2121 ft 32 kts 24°
2026-05-07 15:53 36.09132 -115.16364 2116 ft 38 kts 26°
2026-05-07 15:53 36.09386 -115.16216 2112 ft 42 kts 25°
2026-05-07 15:53 36.09658 -115.16061 2115 ft 42 kts 25°
2026-05-07 15:54 36.09872 -115.15939 2118 ft 22 kts 25°
2026-05-07 15:54 36.09971 -115.15815 2117 ft 21 kts 66°
2026-05-07 15:54 36.09983 -115.15760 2118 ft 0 kts 98°
2026-05-07 15:55 36.09947 -115.15676 2118 ft 16 kts 159°
2026-05-07 15:55 36.09912 -115.15677 2117 ft 0 kts 199°
2026-05-07 15:55 36.09907 -115.15680 2117 ft 5 kts 202°
2026-05-07 15:56 36.09545 -115.15885 2115 ft 115 kts 204°
2026-05-07 15:56 36.08544 -115.16433 2364 ft 179 kts 202°
2026-05-07 15:56 36.07403 -115.17006 3454 ft 177 kts 205°
2026-05-07 15:56 36.06318 -115.17736 4493 ft 177 kts 211°
2026-05-07 15:57 36.05147 -115.18618 5088 ft 230 kts 213°
2026-05-07 15:57 36.03606 -115.19859 5240 ft 296 kts 213°
2026-05-07 15:57 36.01958 -115.21226 6924 ft 286 kts 213°
2026-05-07 15:57 36.00069 -115.22124 8057 ft 299 kts 186°
2026-05-07 15:58 35.97971 -115.22286 9477 ft 305 kts 183°
2026-05-07 15:58 35.95861 -115.22621 10674 ft 315 kts 194°
2026-05-07 15:58 35.93824 -115.23680 11932 ft 322 kts 206°
2026-05-07 15:58 35.91771 -115.24881 13147 ft 331 kts 202°
2026-05-07 15:59 35.89585 -115.25894 14340 ft 339 kts 198°
2026-05-07 15:59 35.87325 -115.26826 15500 ft 344 kts 198°
2026-05-07 15:59 35.85061 -115.27849 16666 ft 350 kts 200°
2026-05-07 15:59 35.82759 -115.28923 17851 ft 357 kts 199°
2026-05-07 16:00 35.80406 -115.29986 18942 ft 364 kts 199°
2026-05-07 16:00 35.78008 -115.31068 19935 ft 370 kts 199°
2026-05-07 16:00 35.75570 -115.32164 20918 ft 376 kts 199°
2026-05-07 16:00 35.73120 -115.33276 21860 ft 383 kts 200°
2026-05-07 16:01 35.70595 -115.34420 22806 ft 389 kts 200°
2026-05-07 16:01 35.68034 -115.35569 23707 ft 395 kts 200°
2026-05-07 16:01 35.65426 -115.36752 24464 ft 400 kts 200°
2026-05-07 16:01 35.62795 -115.37907 25203 ft 405 kts 198°
2026-05-07 16:02 35.60010 -115.38521 25900 ft 408 kts 184°
2026-05-07 16:02 35.57160 -115.38550 26605 ft 411 kts 174°
2026-05-07 16:02 35.54325 -115.38315 27284 ft 415 kts 174°
2026-05-07 16:02 35.51430 -115.38090 27956 ft 419 kts 174°
2026-05-07 16:03 35.48459 -115.37880 28077 ft 436 kts 175°
2026-05-07 16:03 35.45377 -115.38035 28069 ft 454 kts 187°
2026-05-07 16:03 35.42260 -115.38965 28071 ft 469 kts 198°
2026-05-07 16:04 35.36464 -115.42490 28070 ft 464 kts 209°
2026-05-07 16:04 35.30708 -115.46180 28074 ft 468 kts 206°
2026-05-07 16:05 35.24911 -115.49868 28060 ft 469 kts 208°
2026-05-07 16:05 35.19160 -115.53533 28052 ft 463 kts 207°
2026-05-07 16:06 35.13541 -115.57206 28034 ft 458 kts 213°
2026-05-07 16:06 35.11054 -115.59626 28027 ft 457 kts 224°
2026-05-07 16:06 35.08844 -115.62411 28026 ft 455 kts 228°
2026-05-07 16:07 35.04484 -115.68017 28004 ft 458 kts 227°
2026-05-07 16:07 35.00029 -115.73684 28008 ft 466 kts 227°
2026-05-07 16:08 34.95521 -115.79443 28009 ft 471 kts 227°
2026-05-07 16:08 34.90997 -115.85185 28006 ft 472 kts 227°
2026-05-07 16:09 34.86447 -115.90968 28007 ft 473 kts 227°
2026-05-07 16:09 34.81885 -115.96747 28001 ft 473 kts 227°
2026-05-07 16:10 34.77335 -116.02512 28004 ft 470 kts 227°
2026-05-07 16:10 34.72850 -116.08234 28001 ft 465 kts 228°
2026-05-07 16:10 34.70620 -116.11078 28000 ft 463 kts 227°
2026-05-07 16:11 34.68401 -116.13896 28007 ft 462 kts 227°
2026-05-07 16:11 34.63970 -116.19527 28003 ft 464 kts 228°
2026-05-07 16:12 34.59499 -116.25198 28005 ft 466 kts 227°
2026-05-07 16:12 34.55004 -116.30894 28006 ft 467 kts 228°
2026-05-07 16:13 34.50525 -116.36554 28007 ft 467 kts 227°
2026-05-07 16:13 34.46018 -116.42242 28024 ft 467 kts 227°
2026-05-07 16:14 34.41709 -116.48102 28010 ft 462 kts 238°
2026-05-07 16:14 34.38726 -116.54901 28025 ft 455 kts 246°
2026-05-07 16:14 34.37325 -116.58333 27611 ft 452 kts 246°
2026-05-07 16:15 34.35921 -116.61713 27027 ft 448 kts 245°
2026-05-07 16:15 34.34530 -116.65077 26443 ft 445 kts 246°
2026-05-07 16:15 34.33148 -116.68427 25857 ft 446 kts 246°
2026-05-07 16:15 34.31773 -116.71819 25266 ft 449 kts 247°
2026-05-07 16:16 34.30427 -116.75243 24681 ft 452 kts 246°
2026-05-07 16:16 34.29069 -116.78624 24095 ft 454 kts 246°
2026-05-07 16:16 34.27674 -116.82060 23466 ft 454 kts 246°
2026-05-07 16:16 34.26284 -116.85485 22834 ft 453 kts 246°
2026-05-07 16:17 34.24915 -116.88902 22253 ft 450 kts 246°
2026-05-07 16:17 34.23546 -116.92296 21659 ft 449 kts 246°
2026-05-07 16:17 34.22172 -116.95683 21067 ft 448 kts 246°
2026-05-07 16:17 34.20815 -116.99063 20487 ft 445 kts 246°
2026-05-07 16:18 34.19600 -117.02476 19908 ft 440 kts 253°
2026-05-07 16:18 34.18848 -117.06044 19319 ft 437 kts 259°
2026-05-07 16:18 34.18081 -117.09593 18745 ft 436 kts 255°
2026-05-07 16:18 34.17108 -117.13069 18150 ft 436 kts 252°
2026-05-07 16:19 34.16134 -117.16530 17525 ft 434 kts 253°
2026-05-07 16:19 34.15220 -117.19992 16952 ft 432 kts 254°
2026-05-07 16:19 34.14313 -117.23398 16364 ft 430 kts 253°
2026-05-07 16:19 34.13369 -117.26796 15792 ft 417 kts 253°
2026-05-07 16:20 34.12508 -117.30039 15237 ft 394 kts 253°
2026-05-07 16:20 34.11627 -117.33092 14713 ft 377 kts 252°
2026-05-07 16:20 34.10791 -117.36031 14198 ft 364 kts 253°
2026-05-07 16:20 34.10056 -117.38899 13667 ft 352 kts 255°
2026-05-07 16:21 34.09378 -117.41702 13106 ft 344 kts 254°
2026-05-07 16:21 34.08678 -117.44430 12570 ft 337 kts 253°
2026-05-07 16:21 34.08001 -117.47118 12113 ft 330 kts 254°
2026-05-07 16:21 34.07356 -117.49695 12087 ft 312 kts 253°
2026-05-07 16:22 34.06737 -117.52139 12083 ft 297 kts 254°
2026-05-07 16:22 34.06150 -117.54472 12084 ft 285 kts 254°
2026-05-07 16:22 34.05580 -117.56715 12084 ft 275 kts 253°
2026-05-07 16:22 34.05028 -117.58892 12082 ft 268 kts 254°
2026-05-07 16:23 34.04490 -117.61012 12081 ft 262 kts 253°
2026-05-07 16:23 34.04137 -117.62393 12083 ft 258 kts 253°
2026-05-07 16:23 34.03615 -117.64445 12084 ft 254 kts 254°
2026-05-07 16:23 34.02931 -117.67123 12084 ft 250 kts 253°
2026-05-07 16:24 34.02584 -117.68475 12062 ft 249 kts 253°
2026-05-07 16:24 34.02069 -117.70499 11849 ft 256 kts 253°
2026-05-07 16:24 34.01354 -117.73300 11415 ft 268 kts 253°
2026-05-07 16:24 34.00986 -117.74741 11411 ft 264 kts 253°
2026-05-07 16:25 34.00448 -117.76855 11249 ft 266 kts 253°
2026-05-07 16:25 33.99897 -117.79020 10912 ft 273 kts 253°
2026-05-07 16:25 33.99340 -117.81203 10593 ft 278 kts 253°
2026-05-07 16:25 33.98762 -117.83482 9971 ft 292 kts 253°
2026-05-07 16:26 33.98149 -117.85891 9058 ft 309 kts 253°
2026-05-07 16:26 33.97550 -117.88422 8155 ft 318 kts 259°
2026-05-07 16:26 33.97585 -117.91094 7259 ft 323 kts 279°
2026-05-07 16:26 33.97970 -117.93773 6409 ft 326 kts 277°
2026-05-07 16:27 33.98030 -117.96450 6249 ft 307 kts 268°
2026-05-07 16:27 33.97807 -117.98901 6289 ft 286 kts 258°
2026-05-07 16:27 33.97439 -118.01247 5971 ft 287 kts 264°
2026-05-07 16:27 33.97307 -118.03670 5600 ft 294 kts 265°
2026-05-07 16:28 33.96994 -118.06129 5234 ft 300 kts 261°
2026-05-07 16:28 33.96735 -118.08640 4850 ft 304 kts 265°
2026-05-07 16:28 33.96516 -118.11187 4449 ft 307 kts 263°
2026-05-07 16:28 33.96234 -118.13742 4043 ft 305 kts 263°
2026-05-07 16:29 33.95976 -118.16240 3656 ft 296 kts 264°
2026-05-07 16:29 33.95750 -118.18671 3292 ft 289 kts 263°
2026-05-07 16:29 33.95490 -118.20938 2932 ft 254 kts 263°
2026-05-07 16:29 33.95309 -118.22872 2621 ft 215 kts 265°
2026-05-07 16:30 33.95130 -118.24613 2342 ft 207 kts 262°
2026-05-07 16:30 33.94951 -118.26323 2073 ft 206 kts 264°
2026-05-07 16:30 33.94792 -118.28016 1805 ft 206 kts 262°
2026-05-07 16:30 33.94600 -118.29687 1530 ft 189 kts 263°
2026-05-07 16:31 33.94470 -118.31171 1293 ft 172 kts 263°
2026-05-07 16:31 33.94313 -118.32527 1092 ft 150 kts 261°
2026-05-07 16:31 33.94205 -118.33712 870 ft 137 kts 263°
2026-05-07 16:31 33.94088 -118.34824 693 ft 131 kts 262°
2026-05-07 16:32 33.93976 -118.35905 532 ft 128 kts 263°
2026-05-07 16:32 33.93876 -118.36966 364 ft 128 kts 263°
2026-05-07 16:32 33.93764 -118.38029 203 ft 123 kts 262°
2026-05-07 16:32 33.93667 -118.38951 121 ft 99 kts 262°
2026-05-07 16:33 33.93592 -118.39553 119 ft 34 kts 262°
2026-05-07 16:33 33.93571 -118.39733 121 ft 33 kts 264°
2026-05-07 16:33 33.93537 -118.40056 121 ft 27 kts 258°
2026-05-07 16:33 33.93460 -118.40193 120 ft 7 kts 170°
2026-05-07 16:34 33.93427 -118.40168 120 ft 6 kts 109°
2026-05-07 16:34 33.93424 -118.40072 121 ft 19 kts 84°
2026-05-07 16:34 33.93449 -118.39876 121 ft 12 kts 82°
2026-05-07 16:34 33.93409 -118.39816 121 ft 10 kts 201°
2026-05-07 16:35 33.93348 -118.39825 121 ft 8 kts 148°
2026-05-07 16:35 33.93312 -118.39765 121 ft 10 kts 121°
2026-05-07 16:35 33.93306 -118.39753 119 ft 0 kts 121°